Wind_Speed
17 17 18 19 19 19 19 19 19 21 22 21 22 22 22 22 23 24 25 28 31 33 34 35 34 34 33 32 31 30 28 27 26 25 25 23 23 25 25 26 27 27 27 28
16 17 18 19 19 18 18 18 18 20 21 21 22 22 21 21 21 21 23 25 29 32 34 35 36 36 36 35 33 31 29 28 27 26 25 24 24 25 25 26 27 28 30 31
15 17 19 18 18 18 18 18 19 19 20 21 21 20 20 19 19 19 20 23 26 30 33 35 36 36 37 36 35 34 33 31 29 28 27 25 26 26 24 25 26 27 29 31
16 18 18 18 17 18 17 19 19 19 18 16 19 17 18 18 18 18 19 20 23 27 30 34 36 37 37 37 37 36 34 33 31 29 28 27 26 26 25 25 25 24 26 29
17 18 18 18 18 18 18 19 19 19 19 18 17 17 17 18 16 16 17 18 19 22 26 30 33 35 36 37 37 36 34 33 30 29 28 28 26 26 25 26 25 24 26 29
17 18 18 18 18 18 18 18 18 18 16 17 15 16 17 16 15 15 15 16 17 19 22 25 29 32 34 35 35 35 33 33 31 30 29 28 26 25 25 24 23 23 24 26
16 17 18 17 17 17 16 15 14 14 14 14 15 16 17 16 14 14 15 16 16 17 19 21 24 29 31 32 32 33 32 31 30 29 27 26 25 25 24 22 21 21 22 24
14 14 18 16 15 14 14 13 13 14 12 13 16 16 16 15 15 14 14 14 16 18 18 19 21 24 28 30 31 31 31 31 30 29 27 26 25 24 22 21 21 21 21 22
14 14 16 15 14 13 14 13 14 15 14 14 15 17 16 14 14 15 14 14 15 17 18 19 21 22 24 27 29 30 30 30 29 28 27 26 25 23 22 21 21 21 21 22
13 13 14 14 13 13 13 13 14 13 14 14 14 16 15 14 14 14 14 14 15 17 18 19 20 22 23 25 26 28 29 29 28 28 27 26 25 24 22 20 20 20 19 20
12 12 13 13 11 11 12 12 12 12 13 13 13 13 13 13 14 15 15 15 16 17 18 19 20 22 22 24 24 26 27 27 26 26 25 24 22 21 21 21 20 19 19 19
11 10 10 11 11 10 10 10 11 12 13 13 13 15 14 14 14 15 15 15 15 16 17 18 20 22 23 24 25 25 25 25 25 25 25 24 23 22 22 22 21 20 21 21
10 10 9 10 11 10 9 9 10 11 12 13 14 14 13 14 14 14 15 16 16 15 16 17 19 20 22 23 24 25 25 25 25 25 25 24 23 23 23 23 23 23 23 23
10 9 8 9 10 10 9 9 10 10 11 13 13 14 14 14 14 15 15 16 15 15 16 18 18 20 21 22 23 24 25 26 25 25 25 25 25 25 25 25 26 25 25 25
9 8 8 8 8 7 7 8 9 10 11 11 12 14 14 14 14 14 14 15 16 15 16 17 18 19 21 22 23 23 24 24 24 24 24 24 25 26 25 25 25 25 25 27
7 7 7 6 6 6 7 8 9 9 10 11 12 13 13 13 14 14 15 16 15 15 16 17 17 18 19 20 21 22 22 23 23 23 23 24 24 24 24 24 25 26 26 27
6 6 6 6 6 7 8 9 9 9 9 10 11 12 12 13 14 14 14 15 15 15 15 15 15 15 16 16 17 18 20 20 21 22 22 23 23 22 23 24 25 26 26 27
6 5 6 6 7 8 8 8 9 10 10 10 11 11 11 11 11 12 12 13 14 14 14 14 13 13 13 14 15 16 17 19 20 20 21 22 23 23 24 24 24 25 25 26
6 6 6 6 7 8 9 9 9 9 9 9 10 10 10 10 10 10 10 10 12 13 12 12 13 13 12 13 14 15 16 16 17 18 20 21 21 22 22 23 23 24 24 25
7 6 6 6 7 8 9 9 9 8 8 9 9 9 9 9 9 9 9 9 10 11 10 10 11 12 12 13 13 14 15 16 16 17 18 19 19 20 20 21 22 22 22 23
7 7 6 6 7 8 8 8 8 7 8 8 8 8 8 8 8 8 8 9 10 10 10 10 10 10 11 12 13 14 15 15 16 17 17 17 18 19 19 19 20 20 21 21
6 5 5 5 6 7 6 6 6 6 6 7 7 7 7 6 6 7 7 8 8 8 8 9 10 11 12 12 12 13 14 15 15 16 16 16 16 17 18 18 19 19 19 20
6 5 5 5 5 5 5 5 5 5 5 5 5 6 5 5 5 4 5 6 7 7 7 8 10 10 11 11 11 12 12 13 13 14 14 15 15 15 15 16 16 17 17 17
6 5 4 3 3 4 4 4 4 4 4 4 5 5 5 4 4 3 4 4 5 6 6 7 8 9 9 9 10 10 11 11 12 12 12 12 12 12 13 13 14 14 14 14
6 4 3 2 1 2 2 3 3 3 4 4 4 5 5 5 4 4 4 3 4 4 4 5 5 5 7 8 8 9 9 10 10 10 10 10 11 12 12 12 12 12 12 12
7 5 3 2 1 1 2 3 3 4 4 4 4 5 6 6 6 6 6 5 5 4 3 3 3 4 5 6 7 7 7 7 7 7 8 8 8 9 9 9 9 9 9 10
Wind_Direction
287 289 290 289 288 283 280 279 277 276 276 274 272 271 268 263 257 251 244 237 233 229 228 229 231 233 235 238 240 244 249 255 259 259 257 257 255 254 254 252 249 248 248 248
289 291 291 292 290 285 281 279 278 279 278 274 273 272 271 267 261 255 247 240 235 231 228 228 229 232 234 236 239 243 249 254 259 264 265 262 261 261 260 254 251 248 249 248
290 291 294 293 290 288 285 280 276 276 277 278 276 275 274 269 262 256 249 241 236 232 228 227 228 231 233 235 237 242 247 252 257 262 263 264 268 264 264 259 257 253 251 250
290 294 295 295 291 288 286 282 279 276 275 274 273 268 269 268 262 255 250 244 239 233 229 226 227 229 232 235 238 242 246 251 255 259 261 262 266 265 264 261 259 260 254 251
292 296 296 294 291 287 282 279 279 275 272 267 267 267 264 264 260 253 250 244 240 234 229 227 227 229 232 235 238 242 246 251 254 258 260 260 262 266 266 263 261 261 255 251
293 295 295 293 291 288 283 280 281 280 275 269 262 257 260 262 258 250 246 242 240 236 233 232 230 229 231 235 238 241 245 249 253 257 259 261 261 263 264 264 262 259 255 250
297 297 296 295 293 290 284 280 282 279 273 269 262 257 256 259 260 253 247 244 243 238 237 237 234 232 232 235 239 243 246 248 252 255 258 260 261 262 260 262 263 260 255 248
294 295 295 297 291 284 281 271 265 264 265 264 262 258 257 260 260 259 251 248 246 241 237 236 235 233 233 235 238 241 245 249 252 255 257 258 261 261 261 264 266 263 258 251
294 293 296 297 293 285 280 272 262 259 262 266 263 265 265 255 254 256 253 250 246 241 236 234 233 235 234 235 237 240 244 248 250 251 254 254 256 255 256 257 260 258 252 247
295 296 299 300 295 289 278 269 265 263 265 263 265 271 268 257 258 263 259 253 250 245 238 235 235 235 236 237 237 238 241 244 246 246 249 252 252 251 252 253 254 255 254 251
295 300 302 304 299 290 286 279 269 261 257 261 268 269 266 260 259 260 260 256 254 250 242 239 237 237 237 236 237 237 238 240 243 247 249 250 251 251 252 254 255 255 256 257
294 301 302 300 295 287 281 276 266 261 267 268 265 269 268 268 264 263 258 258 256 251 246 243 238 237 238 236 236 238 240 241 243 246 249 251 250 253 253 254 255 255 255 257
293 299 303 304 302 293 283 277 268 261 261 262 266 272 271 269 266 263 260 260 259 253 247 244 241 242 242 240 238 238 240 241 244 245 247 249 249 251 252 254 256 256 256 257
292 295 291 285 283 286 283 277 272 267 267 267 268 271 270 267 265 263 260 258 256 256 252 245 243 244 243 243 240 240 241 240 241 243 245 247 248 249 252 253 254 256 257 259
289 293 294 292 289 286 282 277 274 272 270 270 270 271 271 270 269 266 261 260 258 259 257 251 249 247 245 243 240 238 239 241 242 244 246 248 248 248 250 253 254 255 258 260
285 291 293 297 299 297 291 284 278 276 276 277 277 278 276 273 271 270 266 265 258 258 259 256 252 251 245 243 241 239 240 241 242 243 247 247 247 247 250 255 257 259 262 265
281 286 286 290 295 300 298 291 283 281 279 280 281 281 279 275 273 270 269 264 259 256 257 255 253 252 245 241 239 239 238 241 244 245 246 248 251 254 257 260 261 263 266 269
267 273 277 281 289 297 299 297 293 291 285 284 283 281 280 276 272 272 270 259 252 252 259 258 255 251 247 245 243 242 243 243 246 248 249 251 255 258 259 261 264 265 268 271
251 258 266 276 288 294 299 299 298 293 291 290 288 286 284 281 275 269 263 258 253 260 259 254 253 250 249 250 252 251 250 253 252 250 251 253 255 259 262 265 268 270 271 273
245 252 261 275 287 287 294 298 297 297 296 299 297 297 293 284 274 268 267 263 263 264 261 257 256 255 255 258 260 259 259 257 257 258 257 259 261 264 267 268 270 271 272 273
246 249 258 274 282 287 295 296 299 300 303 306 303 301 299 291 279 270 271 269 264 263 264 263 263 263 265 265 265 262 262 261 264 267 266 266 266 267 269 270 271 272 273 275
237 244 256 267 275 285 294 298 302 307 310 310 311 309 306 297 284 276 275 271 265 263 262 264 266 269 271 270 267 267 268 266 269 270 268 268 269 270 270 271 272 273 273 275
220 228 245 260 273 285 295 302 309 316 317 319 324 325 319 315 301 291 289 277 265 267 271 270 271 271 272 271 272 273 273 273 272 271 269 269 271 271 272 274 275 274 275 275
210 219 237 254 274 289 300 311 318 328 334 332 334 338 344 343 330 322 312 301 293 290 284 280 276 276 274 274 274 275 275 273 272 272 272 272 272 274 276 278 278 278 278 277
199 203 212 232 270 313 332 339 343 351 354 350 353 0 8 6 358 350 344 338 328 316 303 290 283 282 283 281 277 277 274 273 274 272 271 274 277 277 279 280 281 280 278 277
189 189 190 187 144 71 46 37 33 31 25 16 14 23 31 30 25 26 22 15 11 3 351 333 318 308 298 288 284 279 278 278 275 276 276 280 283 281 282 284 281 281 281 278
Height
5796 5797 5796 5795 5795 5794 5793 5793 5793 5791 5790 5790 5790 5790 5791 5791 5793 5794 5796 5799 5801 5804 5808 5811 5814 5817 5820 5822 5824 5826 5828 5829 5829 5830 5830 5831 5833 5834 5835 5835 5836 5837 5838 5840
5793 5792 5791 5790 5789 5788 5788 5788 5788 5786 5785 5785 5785 5785 5784 5785 5786 5788 5790 5792 5794 5798 5801 5804 5808 5811 5814 5816 5819 5820 5822 5823 5825 5825 5825 5826 5827 5828 5829 5830 5830 5831 5833 5834
5789 5788 5786 5785 5784 5783 5783 5783 5782 5781 5780 5779 5780 5780 5779 5780 5781 5782 5783 5785 5787 5790 5794 5797 5801 5804 5807 5810 5813 5815 5816 5818 5819 5820 5820 5821 5821 5821 5823 5823 5824 5825 5825 5826
5784 5783 5782 5781 5780 5779 5778 5777 5777 5776 5776 5777 5777 5778 5776 5775 5775 5776 5778 5779 5781 5784 5787 5790 5794 5797 5800 5803 5806 5808 5809 5811 5813 5814 5815 5815 5815 5815 5817 5817 5817 5817 5818 5820
5780 5779 5777 5776 5775 5774 5773 5772 5771 5771 5771 5771 5772 5773 5774 5770 5770 5771 5773 5774 5776 5778 5781 5784 5787 5790 5793 5796 5799 5801 5803 5805 5806 5807 5808 5809 5809 5810 5810 5810 5811 5811 5811 5812
5776 5774 5773 5772 5770 5769 5768 5767 5766 5766 5766 5767 5768 5769 5769 5767 5767 5768 5769 5770 5772 5774 5776 5778 5781 5784 5787 5790 5793 5795 5797 5799 5800 5801 5802 5803 5803 5804 5804 5804 5805 5804 5804 5805
5772 5770 5768 5767 5765 5764 5763 5764 5765 5764 5764 5765 5764 5764 5764 5763 5763 5764 5765 5766 5768 5769 5771 5773 5776 5779 5782 5784 5787 5789 5791 5793 5794 5795 5796 5797 5797 5798 5798 5799 5799 5798 5798 5799
5769 5769 5765 5762 5762 5761 5760 5760 5762 5762 5763 5762 5759 5759 5759 5759 5760 5760 5761 5762 5764 5765 5767 5769 5771 5773 5775 5778 5781 5783 5785 5786 5788 5790 5791 5792 5792 5792 5793 5793 5793 5792 5792 5793
5765 5764 5760 5758 5757 5756 5756 5756 5757 5757 5757 5757 5756 5755 5754 5754 5756 5756 5757 5758 5760 5761 5762 5764 5766 5768 5770 5772 5774 5777 5779 5781 5782 5784 5785 5786 5787 5787 5788 5788 5788 5787 5787 5788
5760 5760 5758 5755 5754 5752 5752 5752 5752 5752 5753 5753 5753 5752 5751 5751 5752 5753 5753 5754 5755 5756 5757 5759 5760 5762 5764 5766 5768 5771 5773 5775 5776 5778 5779 5780 5780 5781 5782 5782 5782 5782 5782 5783
5756 5756 5755 5752 5751 5751 5749 5748 5748 5749 5749 5750 5750 5751 5747 5747 5748 5748 5749 5750 5750 5751 5752 5754 5755 5757 5759 5761 5762 5764 5766 5768 5770 5771 5773 5774 5774 5774 5775 5776 5776 5777 5777 5777
5753 5752 5751 5750 5748 5747 5746 5745 5745 5746 5746 5745 5746 5748 5743 5743 5743 5743 5744 5745 5746 5746 5747 5748 5750 5751 5753 5755 5757 5759 5760 5762 5764 5765 5766 5767 5768 5769 5769 5770 5770 5771 5772 5772
5750 5750 5749 5748 5748 5745 5743 5742 5742 5742 5742 5742 5742 5744 5740 5739 5739 5739 5740 5741 5741 5742 5742 5743 5744 5746 5747 5749 5750 5752 5754 5756 5757 5759 5760 5761 5762 5762 5763 5763 5764 5765 5765 5765
5747 5746 5746 5746 5744 5742 5741 5740 5739 5739 5739 5739 5738 5738 5736 5735 5735 5735 5735 5736 5737 5737 5737 5738 5739 5740 5741 5743 5744 5746 5747 5749 5751 5752 5753 5754 5755 5756 5757 5757 5758 5758 5758 5759
5744 5743 5742 5741 5740 5739 5738 5738 5737 5736 5735 5735 5734 5733 5732 5731 5731 5731 5731 5732 5732 5732 5733 5733 5734 5735 5736 5737 5738 5740 5741 5743 5744 5746 5747 5748 5748 5749 5750 5750 5750 5751 5751 5751
5741 5741 5740 5739 5738 5737 5736 5735 5734 5733 5732 5731 5730 5730 5728 5727 5727 5727 5727 5727 5727 5728 5728 5728 5729 5729 5730 5731 5732 5734 5735 5737 5738 5739 5740 5741 5742 5742 5743 5744 5744 5744 5744 5744
5739 5739 5739 5738 5737 5736 5735 5734 5732 5731 5730 5729 5727 5727 5725 5724 5723 5723 5722 5722 5723 5723 5723 5723 5724 5724 5725 5726 5727 5728 5730 5731 5732 5733 5734 5735 5735 5736 5737 5737 5737 5737 5737 5737
5737 5737 5736 5736 5736 5735 5735 5732 5730 5729 5727 5726 5724 5723 5722 5721 5720 5719 5719 5718 5719 5719 5719 5719 5720 5720 5721 5722 5723 5724 5724 5725 5726 5727 5728 5729 5729 5730 5730 5730 5731 5731 5730 5730
5735 5735 5735 5735 5734 5733 5732 5730 5728 5726 5725 5723 5722 5720 5719 5717 5716 5716 5715 5715 5715 5715 5715 5715 5716 5716 5717 5718 5718 5719 5720 5720 5721 5722 5722 5723 5724 5724 5724 5724 5724 5724 5724 5723
5733 5733 5733 5733 5732 5732 5731 5728 5725 5725 5723 5721 5719 5717 5716 5715 5714 5714 5713 5712 5712 5712 5712 5712 5713 5713 5713 5714 5714 5715 5716 5716 5717 5717 5717 5718 5718 5718 5718 5718 5718 5718 5717 5717
5731 5731 5731 5731 5730 5729 5728 5725 5724 5724 5723 5719 5717 5716 5714 5713 5712 5712 5710 5710 5710 5710 5710 5710 5710 5710 5710 5710 5711 5711 5711 5711 5712 5712 5713 5713 5713 5713 5713 5713 5712 5712 5711 5710
5729 5730 5730 5729 5728 5729 5726 5724 5723 5722 5719 5717 5716 5714 5712 5711 5710 5709 5708 5708 5707 5707 5707 5707 5707 5707 5707 5707 5707 5707 5707 5707 5707 5707 5708 5708 5708 5708 5708 5707 5707 5706 5705 5704
5728 5729 5728 5728 5729 5726 5724 5722 5721 5719 5718 5716 5714 5713 5711 5709 5708 5707 5706 5706 5705 5705 5704 5704 5704 5704 5703 5703 5703 5703 5703 5703 5703 5703 5703 5703 5703 5703 5702 5702 5701 5700 5700 5699
5727 5726 5726 5726 5725 5724 5723 5721 5720 5718 5717 5715 5713 5712 5710 5709 5707 5706 5705 5704 5703 5703 5702 5701 5701 5700 5700 5700 5700 5700 5699 5699 5699 5699 5699 5699 5699 5698 5698 5697 5696 5696 5695 5695
5725 5725 5725 5725 5724 5723 5722 5721 5719 5718 5716 5714 5713 5711 5709 5708 5707 5705 5704 5703 5702 5701 5700 5699 5699 5698 5698 5697 5697 5696 5696 5695 5695 5695 5695 5695 5695 5694 5694 5693 5692 5692 5691 5690
5724 5725 5725 5725 5724 5723 5722 5721 5719 5718 5716 5714 5713 5711 5709 5708 5706 5705 5704 5702 5701 5700 5699 5698 5697 5696 5696 5695 5694 5693 5693 5692 5692 5692 5692 5691 5691 5690 5690 5689 5689 5688 5688 5687